CW4588 Weather Reports


Display with metric or nautical units.
time (UTC)temp
F
wind
direction
speed
MPH
gust
MPH
rain 1hr
in
rain 24hr
in
rain mn
in
humidity
%
barometer
mb
20260906182546 40 308 0.0 0.0 0.00 0.00 0.00 86 1010.0
20260906182027 40 308 0.0 0.0 0.00 0.00 0.00 86 1010.0
20260906181535 41 308 0.0 0.0 0.00 0.00 0.00 85 1010.0
20260906181022 41 308 0.0 0.0 0.00 0.00 0.00 84 1009.9
20260906180525 41 308 0.0 0.0 0.00 0.00 0.00 84 1009.9
20260906180029 42 308 0.0 0.0 0.00 0.00 0.00 83 1009.8
20260906175529 42 308 0.0 0.0 0.00 0.00 0.00 82 1009.7
20260906175035 43 308 0.0 0.0 0.00 0.00 0.00 81 1009.7
20260906174546 43 308 0.0 0.0 0.00 0.00 0.00 81 1009.7
20260906174026 43 308 0.0 0.0 0.00 0.00 0.00 80 1009.7
20260906173542 44 308 0.0 0.0 0.00 0.00 0.00 80 1009.7
20260906173024 44 308 0.0 0.0 0.00 0.00 0.00 79 1009.7
20260906172525 44 308 0.0 0.0 0.00 0.00 0.00 78 1009.6
20260906172033 45 314 0.0 0.0 0.00 0.00 0.00 77 1009.7
20260906171526 45 324 0.0 0.0 0.00 0.00 0.00 76 1009.7
20260906171029 46 342 0.0 0.0 0.00 0.00 0.00 76 1009.5
20260906170535 46 311 0.0 0.0 0.00 0.00 0.00 75 1009.5
20260906170023 46 319 0.0 0.0 0.00 0.00 0.00 74 1009.5
20260906165600 46 321 0.0 0.0 0.00 0.00 0.00 73 1009.3
20260906165035 47 342 0.0 0.0 0.00 0.00 0.00 71 1009.3
20260906164535 47 304 0.0 0.0 0.00 0.00 0.00 71 1009.3
20260906164039 47 339 1.0 0.0 0.00 0.00 0.00 71 1009.2
20260906163524 47 345 1.0 0.0 0.00 0.00 0.00 70 1009.2
20260906163039 48 308 1.0 0.0 0.00 0.00 0.00 70 1009.2
20260906162522 48 335 1.0 0.0 0.00 0.00 0.00 69 1009.2
20260906162100 48 360 2.0 0.0 0.00 0.00 0.00 68 1009.2
20260906161521 48 349 3.0 0.0 0.00 0.00 0.00 70 1009.2
20260906161023 48 24 3.0 0.0 0.00 0.00 0.00 68 1009.1
20260906160527 48 359 2.0 0.0 0.00 0.00 0.00 68 1009.1
20260906160024 49 335 3.0 0.0 0.00 0.00 0.00 68 1009.1
20260906155524 49 319 3.0 0.0 0.00 0.00 0.00 67 1009.1
20260906155033 49 326 3.0 0.0 0.00 0.00 0.00 67 1009.1
20260906154527 49 326 3.0 0.0 0.00 0.00 0.00 66 1009.1
20260906154032 49 342 3.0 0.0 0.00 0.00 0.00 65 1009.0
20260906153536 49 322 4.0 0.0 0.00 0.00 0.00 65 1009.0
20260906153029 49 329 5.0 0.0 0.00 0.00 0.00 66 1009.0
20260906152553 49 9 6.0 0.0 0.00 0.00 0.00 65 1008.8
20260906152028 50 349 6.0 0.0 0.00 0.00 0.00 64 1008.8
20260906151525 50 342 6.0 0.0 0.00 0.00 0.00 64 1008.8
20260906151038 50 277 6.0 0.0 0.00 0.00 0.00 62 1008.7
20260906150523 51 329 5.0 0.0 0.00 0.00 0.00 63 1008.7
20260906150035 51 20 4.0 0.0 0.00 0.00 0.00 63 1008.7
20260906145524 50 318 5.0 0.0 0.00 0.00 0.00 66 1008.5
20260906145029 50 352 5.0 0.0 0.00 0.00 0.00 64 1008.5
20260906144534 50 343 5.0 0.0 0.00 0.00 0.00 64 1008.5
20260906144028 50 9 6.0 0.0 0.00 0.00 0.00 63 1008.4
20260906143533 51 19 5.0 0.0 0.00 0.00 0.00 60 1008.4
20260906143048 51 312 5.0 0.0 0.00 0.00 0.00 62 1008.4
20260906142555 51 341 6.0 0.0 0.00 0.00 0.00 62 1008.2
20260906142036 51 342 6.0 0.0 0.00 0.00 0.00 61 1008.2
20260906141531 51 312 5.0 0.0 0.00 0.00 0.00 62 1008.2
20260906141035 52 13 4.0 0.0 0.00 0.00 0.00 62 1008.1
20260906140520 52 294 5.0 0.0 0.00 0.00 0.00 62 1008.1
20260906140030 52 326 5.0 0.0 0.00 0.00 0.00 62 1008.2
20260906135529 52 342 5.0 0.0 0.00 0.00 0.00 59 1008.1
20260906135027 53 10 5.0 0.0 0.00 0.00 0.00 59 1008.1
20260906134533 53 2 6.0 0.0 0.00 0.00 0.00 57 1008.1
20260906134023 54 41 6.0 0.0 0.00 0.00 0.00 55 1007.7
20260906133555 55 335 5.0 0.0 0.00 0.00 0.00 55 1007.7
20260906133029 55 314 5.0 0.0 0.00 0.00 0.00 55 1007.7
20260906132533 55 339 5.0 0.0 0.00 0.00 0.00 53 1007.6
20260906132038 55 55 5.0 0.0 0.00 0.00 0.00 53 1007.6
20260906131532 56 335 5.0 0.0 0.00 0.00 0.00 53 1007.6
20260906131034 56 302 6.0 0.0 0.00 0.00 0.00 53 1007.4
20260906130537 56 300 5.0 0.0 0.00 0.00 0.00 54 1007.4
20260906130031 56 348 4.0 0.0 0.00 0.00 0.00 55 1007.4
20260906125538 56 338 6.0 0.0 0.00 0.00 0.00 55 1007.3
20260906125023 55 27 6.0 0.0 0.00 0.00 0.00 56 1007.3
20260906124552 55 326 5.0 0.0 0.00 0.00 0.00 57 1007.3
20260906124047 54 5 4.0 0.0 0.00 0.00 0.00 59 1007.2
20260906123535 54 304 5.0 0.0 0.00 0.00 0.00 57 1007.2
20260906123037 54 349 6.0 0.0 0.00 0.00 0.00 56 1007.2
20260906122531 55 335 6.0 0.0 0.00 0.00 0.00 56 1007.1
20260906122031 55 348 6.0 0.0 0.00 0.00 0.00 57 1007.1
20260906121529 55 345 6.0 0.0 0.00 0.00 0.00 55 1007.1
20260906121106 55 349 7.0 0.0 0.00 0.00 0.00 56 1007.0
20260906120529 55 360 7.0 0.0 0.00 0.00 0.00 56 1007.0
20260906120042 55 325 6.0 0.0 0.00 0.00 0.00 55 1007.0
20260906115529 55 342 4.0 0.0 0.00 0.00 0.00 59 1006.8
20260906115038 55 38 5.0 0.0 0.00 0.00 0.00 60 1006.8
20260906114530 55 310 6.0 0.0 0.00 0.00 0.00 56 1006.8
20260906114028 55 348 7.0 0.0 0.00 0.00 0.00 56 1006.6
20260906113540 56 342 8.0 0.0 0.00 0.00 0.00 54 1006.7
20260906113054 56 2 6.0 0.0 0.00 0.00 0.00 54 1006.7
20260906112536 56 308 4.0 0.0 0.00 0.00 0.00 59 1006.6
20260906112048 55 9 5.0 0.0 0.00 0.00 0.00 59 1006.5
20260906111536 55 266 7.0 0.0 0.00 0.00 0.00 55 1006.5
20260906111043 55 33 6.0 0.0 0.00 0.00 0.00 57 1006.1
20260906110533 56 321 5.0 0.0 0.00 0.00 0.00 56 1006.1
20260906110040 56 287 5.0 0.0 0.00 0.00 0.00 56 1006.1
20260906105533 56 348 5.0 0.0 0.00 0.00 0.00 56 1006.0
20260906105035 56 341 6.0 0.0 0.00 0.00 0.00 58 1006.0
20260906104521 56 326 5.0 0.0 0.00 0.00 0.00 58 1006.0
20260906104029 56 342 5.0 0.0 0.00 0.00 0.00 58 1005.8
20260906103531 56 22 6.0 0.0 0.00 0.00 0.00 57 1005.8
20260906103033 56 23 7.0 0.0 0.00 0.00 0.00 59 1005.8
20260906102524 55 318 7.0 0.0 0.00 0.00 0.00 61 1005.6
20260906102026 55 342 6.0 0.0 0.00 0.00 0.00 58 1005.6
20260906101524 55 342 6.0 0.0 0.00 0.00 0.00 59 1005.6
20260906101024 55 341 6.0 0.0 0.00 0.00 0.00 59 1005.4
20260906100539 55 339 5.0 0.0 0.00 0.00 0.00 58 1005.4
20260906100021 55 321 7.0 0.0 0.00 0.00 0.00 60 1005.4
20260906095526 54 13 7.0 0.0 0.00 0.00 0.00 59 1005.4
20260906095044 55 338 8.0 0.0 0.00 0.00 0.00 59 1005.4
20260906094544 54 331 7.0 0.0 0.00 0.00 0.00 58 1005.4
20260906094040 54 304 6.0 0.0 0.00 0.00 0.00 59 1005.3
20260906093525 54 277 6.0 0.0 0.00 0.00 0.00 60 1005.3
20260906093032 54 329 6.0 0.0 0.00 0.00 0.00 58 1005.3
20260906092545 54 338 7.0 0.0 0.00 0.00 0.00 61 1005.0
20260906092023 54 346 7.0 0.0 0.00 0.00 0.00 60 1005.0
20260906091532 54 9 6.0 0.0 0.00 0.00 0.00 60 1005.0
20260906091038 53 352 5.0 0.0 0.00 0.00 0.00 63 1005.0
20260906090556 52 30 7.0 0.0 0.00 0.00 0.00 64 1005.0
20260906090040 52 342 5.0 0.0 0.00 0.00 0.00 64 1005.0
20260906085522 53 336 4.0 0.0 0.00 0.00 0.00 64 1004.8
20260906085037 53 331 6.0 0.0 0.00 0.00 0.00 64 1004.8
20260906084529 53 319 6.0 0.0 0.00 0.00 0.00 61 1004.8
20260906084033 53 342 6.0 0.0 0.00 0.00 0.00 63 1004.6
20260906083537 53 286 7.0 0.0 0.00 0.00 0.00 63 1004.6
20260906083032 52 23 6.0 0.0 0.00 0.00 0.00 66 1004.6
20260906082537 52 6 5.0 0.0 0.00 0.00 0.00 64 1004.6
20260906082026 52 355 6.0 0.0 0.00 0.00 0.00 64 1004.6
20260906081531 52 7 6.0 0.0 0.00 0.00 0.00 64 1004.6
20260906081028 52 343 7.0 0.0 0.00 0.00 0.00 64 1004.5
20260906080541 53 349 7.0 0.0 0.00 0.00 0.00 64 1004.5
20260906080029 53 356 7.0 0.0 0.00 0.00 0.00 63 1004.5
20260906075534 53 20 7.0 0.0 0.00 0.00 0.00 64 1004.1
20260906075048 53 311 7.0 0.0 0.00 0.00 0.00 65 1004.1
20260906074537 52 23 8.0 0.0 0.00 0.00 0.00 66 1004.1
20260906074041 52 345 7.0 0.0 0.00 0.00 0.00 65 1004.1
20260906073536 52 16 6.0 0.0 0.00 0.00 0.00 68 1004.1
20260906073052 51 22 6.0 0.0 0.00 0.00 0.00 67 1004.1
20260906072556 51 353 5.0 0.0 0.00 0.00 0.00 71 1004.0
20260906072048 50 301 5.0 0.0 0.00 0.00 0.00 71 1004.0
20260906071553 50 276 4.0 0.0 0.00 0.00 0.00 71 1004.0
20260906071029 51 307 4.0 0.0 0.00 0.00 0.00 72 1003.9
20260906070540 51 336 4.0 0.0 0.00 0.00 0.00 73 1003.9
20260906070048 51 353 5.0 0.0 0.00 0.00 0.00 73 1003.9
20260906065541 51 315 5.0 0.0 0.00 0.00 0.00 73 1003.6
20260906065028 50 322 4.0 0.0 0.00 0.00 0.00 74 1003.6
20260906064551 50 338 3.0 0.0 0.00 0.00 0.00 76 1003.6
20260906064046 50 336 3.0 0.0 0.00 0.00 0.00 76 1003.4
20260906063531 50 332 3.0 0.0 0.00 0.00 0.00 76 1003.4
20260906063039 50 353 4.0 0.0 0.00 0.00 0.00 76 1003.4
20260906062541 50 342 3.0 0.0 0.00 0.00 0.00 77 1003.2
20260906062031 49 311 2.0 0.0 0.00 0.00 0.00 80 1003.2
20260906061534 49 342 2.0 0.0 0.00 0.00 0.00 82 1003.2
20260906061026 48 13 1.0 0.0 0.00 0.00 0.00 84 1003.1
20260906060529 47 14 2.0 0.0 0.00 0.00 0.00 86 1003.1
20260906060036 47 305 1.0 0.0 0.00 0.00 0.00 88 1003.1
20260906055535 47 339 1.0 0.0 0.00 0.00 0.00 88 1002.9
20260906055035 46 329 0.0 0.0 0.00 0.00 0.00 90 1002.9
20260906054526 46 341 0.0 0.0 0.00 0.00 0.00 91 1002.9
20260906054031 46 348 0.0 0.0 0.00 0.00 0.00 91 1002.8
20260906053534 46 308 0.0 0.0 0.00 0.00 0.00 92 1002.8
20260906053044 46 324 0.0 0.0 0.00 0.00 0.00 92 1002.8
20260906052527 45 342 0.0 0.0 0.00 0.00 0.00 93 1002.6
20260906052107 45 331 0.0 0.0 0.00 0.00 0.00 93 1002.6
20260906051525 45 328 0.0 0.0 0.00 0.00 0.00 94 1002.6
20260906051030 45 331 0.0 0.0 0.00 0.00 0.00 94 1002.5
20260906050545 45 345 0.0 0.0 0.00 0.00 0.00 94 1002.5
20260906050034 44 335 0.0 0.0 0.00 0.00 0.00 94 1002.4
20260906045533 44 332 0.0 0.0 0.00 0.00 0.00 95 1002.4
20260906045053 44 336 0.0 0.0 0.00 0.00 0.00 95 1002.4
20260906044537 44 311 0.0 0.0 0.00 0.00 0.00 95 1002.4
20260906044024 44 336 0.0 0.0 0.00 0.00 0.00 96 1002.1
20260906043534 44 328 0.0 0.0 0.00 0.00 0.00 96 1002.1
20260906043038 44 328 0.0 0.0 0.00 0.00 0.00 96 1002.1
20260906042520 44 295 0.0 0.0 0.00 0.00 0.00 96 1001.9
20260906042036 44 263 0.0 0.0 0.00 0.00 0.00 97 1001.9
20260906041536 44 310 0.0 0.0 0.00 0.00 0.00 97 1001.9
20260906041020 44 262 0.0 0.0 0.00 0.00 0.00 98 1001.8
20260906040604 44 293 0.0 0.0 0.00 0.00 0.00 98 1001.8
20260906040053 44 278 0.0 0.0 0.00 0.00 0.00 99 1001.8
20260906035547 44 297 0.0 0.0 0.00 0.00 0.00 99 1001.6
20260906035031 44 304 0.0 0.0 0.00 0.00 0.00 99 1001.6
20260906034546 44 314 0.0 0.0 0.00 0.00 0.00 99 1001.6
20260906034028 44 342 0.0 0.0 0.00 0.00 0.00 99 1001.4
20260906033533 44 325 0.0 0.0 0.00 0.00 0.00 99 1001.4
20260906033030 44 315 0.0 0.0 0.00 0.00 0.00 99 1001.4
20260906032525 44 312 0.0 0.0 0.00 0.00 0.00 99 1001.4
20260906032031 44 301 0.0 0.0 0.00 0.00 0.00 99 1001.4
20260906031525 44 291 0.0 0.0 0.00 0.00 0.00 99 1001.4
20260906031027 43 314 0.0 0.0 0.00 0.00 0.00 99 1001.3
20260906030534 43 321 0.0 0.0 0.00 0.00 0.00 99 1001.3
20260906030050 43 274 0.0 0.0 0.00 0.00 0.00 99 1001.4
20260906025530 44 273 0.0 0.0 0.00 0.00 0.00 99 1001.2
20260906025046 44 273 0.0 0.0 0.00 0.00 0.00 99 1001.2
20260906024532 44 273 0.0 0.0 0.00 0.00 0.00 99 1001.2
20260906024043 44 300 0.0 0.0 0.00 0.00 0.00 99 1001.0
20260906023525 44 335 0.0 0.0 0.00 0.00 0.00 99 1001.0
20260906023035 44 336 0.0 0.0 0.00 0.00 0.00 99 1001.0
20260906022540 45 307 0.0 0.0 0.00 0.00 0.00 99 1001.0
20260906022027 45 324 0.0 0.0 0.00 0.00 0.00 99 1001.0
20260906021538 45 308 0.0 0.0 0.00 0.00 0.00 99 1001.0
20260906021021 45 317 0.0 0.0 0.00 0.00 0.00 100 1000.9
20260906020527 45 326 0.0 0.0 0.00 0.00 0.00 100 1000.9
20260906020105 46 321 0.0 0.0 0.00 0.00 0.00 100 1000.9
20260906015528 46 334 0.0 0.0 0.00 0.00 0.00 100 1000.8
20260906015105 46 342 0.0 0.0 0.00 0.00 0.00 100 1000.8
20260906014540 46 329 0.0 0.0 0.00 0.00 0.00 100 1000.8
20260906014045 46 342 0.0 0.0 0.00 0.00 0.00 100 1000.6
20260906013527 46 334 0.0 0.0 0.00 0.00 0.00 100 1000.6
20260906013028 45 293 0.0 0.0 0.00 0.00 0.00 100 1000.6
20260906012558 45 341 0.0 0.0 0.00 0.00 0.00 99 1000.4
20260906012043 45 308 0.0 0.0 0.00 0.00 0.00 99 1000.4
20260906011534 45 305 0.0 0.0 0.00 0.00 0.00 99 1000.4
20260906011039 45 290 0.0 0.0 0.00 0.00 0.00 99 1000.3
20260906010525 45 294 0.0 0.0 0.00 0.00 0.00 99 1000.3
20260906010044 45 338 0.0 0.0 0.00 0.00 0.00 99 1000.3
20260906005549 45 342 0.0 0.0 0.00 0.00 0.00 99 1000.3
20260906005031 44 321 0.0 0.0 0.00 0.00 0.00 98 1000.3
20260906004526 44 310 0.0 0.0 0.00 0.00 0.00 97 1000.3
20260906004034 44 310 0.0 0.0 0.00 0.00 0.00 97 1000.1
20260906003530 44 300 0.0 0.0 0.00 0.00 0.00 97 1000.1
20260906003037 43 239 0.0 0.0 0.00 0.00 0.00 96 1000.1
20260906002537 43 259 0.0 0.0 0.00 0.00 0.00 96 1000.0
20260906002046 43 269 0.0 0.0 0.00 0.00 0.00 95 1000.0
20260906001531 44 260 0.0 0.0 0.00 0.00 0.00 95 1000.0
20260906001030 44 256 0.0 0.0 0.00 0.00 0.00 95 1000.0
20260906000540 44 298 0.0 0.0 0.00 0.00 0.00 95 1000.0
20260906000022 44 298 0.0 0.0 0.00 0.00 0.00 95 1000.0
20260905235524 45 298 0.0 0.0 0.00 0.00 0.00 95 1000.0
20260905235027 45 298 0.0 0.0 0.00 0.00 0.00 95 1000.0
20260905234536 45 298 0.0 0.0 0.00 0.00 0.00 95 1000.0
20260905234037 46 298 0.0 0.0 0.00 0.00 0.00 95 999.9
20260905233520 46 298 0.0 0.0 0.00 0.00 0.00 96 999.9
20260905233026 46 298 0.0 0.0 0.00 0.00 0.00 96 999.9
20260905232527 46 298 0.0 0.0 0.00 0.00 0.00 96 999.8
20260905232040 47 298 0.0 0.0 0.00 0.00 0.00 96 999.8
20260905231535 47 298 0.0 0.0 0.00 0.00 0.00 96 999.8
20260905231020 47 298 0.0 0.0 0.00 0.00 0.00 96 999.8
20260905230558 47 298 0.0 0.0 0.00 0.00 0.00 96 999.8
20260905230037 47 298 0.0 0.0 0.00 0.00 0.00 96 999.8
20260905225545 47 284 0.0 0.0 0.00 0.00 0.00 96 999.8
20260905225048 47 284 0.0 0.0 0.00 0.00 0.00 96 999.8
20260905224537 47 326 0.0 0.0 0.00 0.00 0.00 96 999.8
20260905224035 47 311 0.0 0.0 0.00 0.00 0.00 96 999.6
20260905223537 47 311 0.0 0.0 0.00 0.00 0.00 96 999.6
20260905223038 47 311 0.0 0.0 0.00 0.00 0.00 95 999.6
20260905222550 47 311 0.0 0.0 0.00 0.00 0.00 95 999.5
20260905222034 47 311 0.0 0.0 0.00 0.00 0.00 95 999.5
20260905221551 48 311 0.0 0.0 0.00 0.00 0.00 95 999.5
20260905221032 48 300 0.0 0.0 0.00 0.00 0.00 95 999.4
20260905220537 48 314 0.0 0.0 0.00 0.00 0.00 95 999.4
20260905220033 48 339 0.0 0.0 0.00 0.00 0.00 95 999.4
20260905215537 48 348 0.0 0.0 0.00 0.00 0.00 95 999.3
20260905215025 48 328 0.0 0.0 0.00 0.00 0.00 95 999.3
20260905214537 48 342 0.0 0.0 0.00 0.00 0.00 95 999.3
20260905214022 48 342 1.0 0.0 0.00 0.00 0.00 95 999.2
20260905213529 48 10 2.0 0.0 0.00 0.00 0.00 95 999.2
20260905213045 48 339 2.0 0.0 0.00 0.00 0.00 95 999.2
20260905212524 48 332 1.0 0.0 0.00 0.00 0.00 95 999.2
20260905212021 48 30 0.0 0.0 0.00 0.00 0.00 94 999.2
20260905211533 48 355 1.0 0.0 0.00 0.00 0.00 94 999.2
20260905211033 48 336 1.0 0.0 0.00 0.00 0.00 94 998.9
20260905210537 48 342 1.0 0.0 0.00 0.00 0.00 94 998.9
20260905210053 48 348 1.0 0.0 0.00 0.00 0.00 94 998.9
20260905205533 48 332 2.0 0.0 0.00 0.00 0.02 94 998.8
20260905205038 48 14 3.0 0.0 0.00 0.00 0.02 94 998.8
20260905204521 48 5 2.0 0.0 0.00 0.00 0.02 94 998.8
20260905204059 48 26 2.0 0.0 0.00 0.00 0.02 94 998.7
20260905203522 48 40 2.0 0.0 0.00 0.00 0.02 94 998.7
20260905203032 48 346 1.0 0.0 0.00 0.00 0.02 94 998.7
20260905202535 48 335 0.0 0.0 0.00 0.00 0.02 94 998.6
20260905202021 48 342 0.0 0.0 0.00 0.00 0.02 94 998.6
20260905201538 47 328 0.0 0.0 0.00 0.00 0.02 94 998.6
20260905201023 47 335 0.0 0.0 0.00 0.00 0.02 94 998.4
20260905200525 47 311 0.0 0.0 0.00 0.00 0.02 94 998.4
20260905200046 47 336 0.0 0.0 0.00 0.00 0.02 93 998.4
20260905195529 47 336 0.0 0.0 0.00 0.00 0.02 93 998.3
20260905195037 47 325 0.0 0.0 0.00 0.00 0.02 93 998.3
20260905194557 47 314 0.0 0.0 0.00 0.00 0.02 92 998.3
20260905194039 48 353 0.0 0.0 0.00 0.00 0.02 92 998.2
20260905193524 48 334 1.0 0.0 0.00 0.00 0.02 92 998.2
20260905193104 48 305 1.0 0.0 0.00 0.00 0.02 92 998.2
20260905192523 48 338 0.0 0.0 0.00 0.00 0.02 92 998.1
20260905192030 48 318 1.0 0.0 0.00 0.00 0.02 92 998.1
20260905191536 48 342 1.0 0.0 0.00 0.00 0.02 92 998.1
20260905191031 48 267 1.0 0.0 0.00 0.00 0.02 91 998.1
20260905190536 48 336 1.0 0.0 0.00 0.00 0.02 91 998.1
20260905190053 49 334 1.0 0.0 0.00 0.00 0.02 91 998.1
20260905185558 49 341 1.0 0.0 0.00 0.00 0.02 91 997.8
20260905185024 49 301 0.0 0.0 0.00 0.00 0.02 91 997.8
20260905184523 49 342 0.0 0.0 0.00 0.00 0.02 91 997.8
20260905184036 49 349 0.0 0.0 0.00 0.00 0.02 91 997.8
20260905183519 49 342 1.0 0.0 0.00 0.00 0.02 91 997.8
20260905183027 49 356 2.0 0.0 0.00 0.00 0.02 91 997.8